FW8074 Weather Reports


Display with metric or nautical units.
time (UTC)temp
F
wind
direction
speed
MPH
gust
MPH
rain 1hr
in
rain 24hr
in
rain mn
in
humidity
%
barometer
mb
20260831200101 91 0 0.0 0.0 0.00 0.00 0.00 57 1015.4
20260831194605 90 0 0.0 0.0 0.00 0.00 0.00 62 1015.5
20260831193102 90 0 0.0 0.0 0.00 0.00 0.00 62 1015.6
20260831191600 90 0 0.0 0.0 0.00 0.00 0.00 63 1015.8
20260831190112 90 0 0.0 0.0 0.00 0.00 0.00 64 1015.9
20260831184613 90 0 0.0 0.0 0.00 0.00 0.00 66 1016.0
20260831183101 89 0 0.0 0.0 0.00 0.00 0.00 64 1016.1
20260831181602 90 0 0.0 0.0 0.00 0.00 0.00 64 1016.3
20260831180110 90 0 0.0 0.0 0.00 0.00 0.00 67 1016.5
20260831174607 89 0 0.0 0.0 0.00 0.00 0.00 65 1016.6
20260831173103 90 0 0.0 0.0 0.00 0.00 0.00 67 1016.8
20260831171605 89 0 0.0 0.0 0.00 0.00 0.00 69 1016.9
20260831170106 89 0 0.0 0.0 0.00 0.00 0.00 68 1017.0
20260831164632 88 0 0.0 0.0 0.00 0.00 0.00 72 1017.1
20260831163104 88 0 0.0 0.0 0.00 0.00 0.00 67 1017.2
20260831161607 87 0 0.0 0.0 0.00 0.00 0.00 72 1017.2
20260831160106 86 0 0.0 0.0 0.00 0.00 0.00 74 1017.3
20260831154630 86 0 0.0 0.0 0.00 0.00 0.00 76 1017.3
20260831153106 86 0 0.0 0.0 0.00 0.00 0.00 75 1017.5
20260831151614 85 0 0.0 0.0 0.00 0.00 0.00 75 1017.5
20260831150105 85 0 0.0 0.0 0.00 0.00 0.00 78 1017.3
20260831144625 84 0 0.0 0.0 0.00 0.00 0.00 81 1017.1
20260831143124 83 0 0.0 0.0 0.00 0.00 0.00 82 1017.2
20260831141628 82 0 0.0 0.0 0.00 0.00 0.00 86 1017.3
20260831140106 81 0 0.0 0.0 0.00 0.00 0.00 87 1017.2
20260831134605 79 0 0.0 0.0 0.00 0.00 0.00 92 1017.0
20260831133109 78 0 0.0 0.0 0.00 0.00 0.00 95 1017.0
20260831131602 76 0 0.0 0.0 0.00 0.00 0.00 97 1017.3
20260831130110 75 0 0.0 0.0 0.00 0.00 0.00 99 1017.3
20260831124603 74 0 0.0 0.0 0.00 0.00 0.00 100 1017.2
20260831123107 72 0 0.0 0.0 0.00 0.00 0.00 100 1017.1
20260831121601 71 0 0.0 0.0 0.00 0.00 0.00 100 1017.1
20260831120111 71 0 0.0 0.0 0.00 0.00 0.00 100 1017.0
20260831114605 71 0 0.0 0.0 0.00 0.00 0.00 100 1017.0
20260831113107 71 0 0.0 0.0 0.00 0.00 0.00 100 1016.8
20260831111609 70 0 0.0 0.0 0.00 0.00 0.00 100 1016.6
20260831110107 71 0 0.0 0.0 0.00 0.00 0.00 99 1016.8
20260831104605 70 0 0.0 0.0 0.00 0.00 0.00 99 1016.7
20260831103105 71 0 0.0 0.0 0.00 0.00 0.00 99 1016.7
20260831101609 71 0 0.0 0.0 0.00 0.00 0.00 99 1016.6
20260831100126 71 0 0.0 0.0 0.00 0.00 0.00 99 1016.5
20260831094626 71 0 0.0 0.0 0.00 0.00 0.00 99 1016.5
20260831093107 71 0 0.0 0.0 0.00 0.00 0.00 99 1016.5
20260831091610 71 0 0.0 0.0 0.00 0.00 0.00 99 1016.4
20260831090109 71 0 0.0 0.0 0.00 0.00 0.00 99 1016.4
20260831084611 71 0 0.0 0.0 0.00 0.00 0.00 99 1016.4
20260831083112 71 0 0.0 0.0 0.00 0.00 0.00 99 1016.1
20260831081609 71 0 0.0 0.0 0.00 0.00 0.00 99 1016.1
20260831080107 72 0 0.0 0.0 0.00 0.00 0.00 99 1016.0
20260831074617 72 0 0.0 0.0 0.00 0.00 0.00 99 1016.0
20260831073110 72 0 0.0 0.0 0.00 0.00 0.00 99 1016.2
20260831071605 72 0 0.0 0.0 0.00 0.00 0.00 99 1016.2
20260831070108 72 0 0.0 0.0 0.00 0.00 0.00 99 1016.1
20260831064604 72 0 0.0 0.0 0.00 0.00 0.00 99 1016.3
20260831063105 73 0 0.0 0.0 0.00 0.00 0.00 99 1016.7
20260831061605 73 0 0.0 0.0 0.00 0.00 0.00 99 1016.6
20260831060112 73 0 0.0 0.0 0.00 0.00 0.00 99 1016.6
20260831054607 73 0 0.0 0.0 0.00 0.00 0.00 99 1016.9
20260831053101 73 0 0.0 0.0 0.00 0.00 0.00 99 1017.1
20260831051612 73 0 0.0 0.0 0.00 0.00 0.00 98 1017.1
20260831050115 73 0 0.0 0.0 0.00 0.00 0.00 98 1017.2
20260831044617 73 0 0.0 0.0 0.00 0.00 0.00 98 1017.2
20260831043110 74 0 0.0 0.0 0.00 0.00 0.00 98 1017.1
20260831041603 74 0 0.0 0.0 0.00 0.00 0.00 98 1017.2
20260831040107 74 0 0.0 0.0 0.00 0.00 0.00 98 1017.0
20260831034607 74 0 0.0 0.0 0.00 0.00 0.00 98 1017.0
20260831033120 75 0 0.0 0.0 0.00 0.00 0.00 98 1017.1
20260831031609 75 0 0.0 0.0 0.00 0.00 0.00 97 1017.1
20260831030127 75 0 0.0 0.0 0.00 0.00 0.00 97 1017.1
20260831024621 75 0 0.0 0.0 0.00 0.00 0.00 97 1017.1
20260831023106 76 0 0.0 0.0 0.00 0.00 0.00 96 1016.9
20260831021607 76 0 0.0 0.0 0.00 0.00 0.00 96 1017.1
20260831020112 76 0 0.0 0.0 0.00 0.00 0.00 96 1017.0
20260831014604 77 0 0.0 0.0 0.00 0.00 0.00 95 1016.8
20260831013101 77 0 0.0 0.0 0.00 0.00 0.00 95 1016.7
20260831011608 77 0 0.0 0.0 0.00 0.00 0.00 94 1016.7
20260831010109 78 0 0.0 0.0 0.00 0.00 0.00 93 1016.6
20260831004606 78 0 0.0 0.0 0.00 0.00 0.00 92 1016.5
20260831003104 79 0 0.0 0.0 0.00 0.00 0.00 92 1016.7
20260831001611 79 0 0.0 0.0 0.00 0.00 0.00 91 1016.6
20260831000107 80 0 0.0 0.0 0.00 0.00 0.00 89 1016.6
20260830234605 81 0 0.0 0.0 0.00 0.00 0.00 89 1016.5
20260830233105 81 0 0.0 0.0 0.00 0.00 0.00 87 1016.5
20260830231608 82 0 0.0 0.0 0.00 0.00 0.00 86 1016.4
20260830230106 82 0 0.0 0.0 0.00 0.00 0.00 85 1016.6
20260830224607 83 0 0.0 0.0 0.00 0.00 0.00 82 1016.6
20260830223106 83 0 0.0 0.0 0.00 0.00 0.00 83 1016.6
20260830221606 83 0 0.0 0.0 0.00 0.00 0.00 81 1016.5
20260830220108 84 0 0.0 0.0 0.00 0.00 0.00 81 1016.5
20260830214629 84 0 0.0 0.0 0.00 0.00 0.00 77 1016.5
20260830213105 85 0 0.0 0.0 0.00 0.00 0.00 77 1016.6
20260830211607 84 0 0.0 6.0 0.00 0.00 0.00 76 1016.5
20260830210108 84 217 1.0 5.0 0.00 0.00 0.00 76 1016.6
20260830204605 84 0 0.0 0.0 0.00 0.00 0.00 76 1016.6
20260830203103 85 0 0.0 0.0 0.00 0.00 0.00 74 1017.1
20260830201607 85 0 0.0 0.0 0.00 0.00 0.00 78 1017.2